Miscellaneous Local Product
Issued by NWS North Platte, NE

Home | Current Version | Previous Version | Text Only | Print | Product List | Glossary On
Versions: 1 2 3 4 5 6 7 8 9 10 11 12 13 14 15 16 17 18 19 20 21 22 23 24 25 26 27 28 29 30 31 32 33 34 35 36 37 38 39 40 41 42 43 44 45 46 47 48 49 50
000
AXUS43 KLBF 021810
MISLBF


WESTERN AND NORTH CENTRAL NEBRASKA HOURLY WEATHER ROUNDUP
NATIONAL WEATHER SERVICE NORTH PLATTE NE
1200 PM CST MON MAR 02 2015

***STATIONS NOT REPORTING VARIABLES SUCH AS SKY/WEATHER OR
PRESSURE ARE PROVIDED BY THE NEBRASKA DEPARTMENT OF
ROADS...RAWS...AND APRS NETWORKS...AND ARE NOT UNDER
NATIONAL WEATHER SERVICE QUALITY CONTROL***

...OBSERVATIONS IN AND NEAR THE EASTERN PANHANDLE OF NEBRASKA...

CITY           SKY/WX    TMP DP  RH WIND       PRES   REMARKS
PINE RIDGE     SUNNY     41  17  38 S26G33    29.92R
CHADRON        MOSUNNY   42  23  46 S18       29.88F
ALLIANCE       PTSUNNY   35  18  49 S24G33    29.92F WCI  23
SIDNEY         CLOUDY    32  21  64 S21G26    29.95F WCI  20
WHITECLAY        N/A     38  17  43 S16         N/A  WCI  28
CRESCENT LAKE    N/A     35  15  44 S16G25      N/A  WCI  25
LISCO            N/A     39  16  39 E22         N/A  WCI  28
BIG SPRINGS      N/A     34  22  62 S17         N/A  WCI  23
LEWELLEN         N/A     36  16  43 S20         N/A  WCI  25
$$

...OBSERVATIONS IN NORTH CENTRAL NEBRASKA...

CITY           SKY/WX    TMP DP  RH WIND       PRES   REMARKS
VALENTINE      CLOUDY    36  16  44 S29G46    30.04F WCI  23
THEDFORD       MOSUNNY   37  15  41 S29G39    30.08F WCI  24
AINSWORTH      CLOUDY    35  16  45 S25       30.09F WCI  23
O`NEILL        CLOUDY    36  18  49 S16G28    30.19F WCI  26
ORD            CLOUDY    38  17  42 S21G32    30.20F WCI  28
BROKEN BOW     CLOUDY    36  15  42 S30G36    30.17F WCI  23
BROWNLEE         N/A     38  16  41 S30         N/A  WCI  25
SPRINGVIEW       N/A     36  20  51 SW16G26     N/A  WCI  26
BREWSTER         N/A     39  15  37 S25         N/A  WCI  28
ROSE             N/A     39  24  54 SE22        N/A  WCI  28
NEWPORT          N/A     36  19  50 S26         N/A  WCI  24
SARGENT          N/A     37  18  46 SW9G16      N/A  WCI  30
COMSTOCK         N/A     40  16  38 S18         N/A  WCI  31
EWING            N/A     35  21  57 S13G25      N/A  WCI  26
$$

...OBSERVATIONS IN SOUTHWEST NEBRASKA AND FAR NORTHEAST COLORADO...

CITY           SKY/WX    TMP DP  RH WIND       PRES   REMARKS
WRAY           CLOUDY    30  24  77 SE20G26   30.04F WCI  18
IMPERIAL         N/A     32  19  58 S25G32    30.07F WCI  19
OGALLALA       PTSUNNY   35  20  55 S21G28    30.04F WCI  24
NORTH PLATTE   PTSUNNY   38   9  30 S25G35    30.11F WCI  27
MCCOOK         CLOUDY    36  18  48 S17G29    30.16F WCI  26
LEXINGTON      CLOUDY    36  15  41 S25G37    30.19F WCI  24
PAXTON           N/A     36  21  54 S24         N/A  WCI  24
BRADY            N/A     34  10  37 E5G13       N/A  WCI  30
GOTHENBURG       N/A     34  12  40 S20         N/A  WCI  23
CALLAWAY         N/A     34  15  46 S28         N/A  WCI  21
$$

...NORTH PLATTE AREA...

CITY           SKY/WX    TMP DP  RH WIND       PRES   REMARKS
AIRPORT        PTSUNNY   38   9  30 S25G35    30.11F WCI  27
DOWNTOWN         N/A     35  14  43 S18G32      N/A  WCI  24
$$

...SOME WEATHER OBSERVATIONS FROM AROUND THE REGION...

CITY           SKY/WX    TMP DP  RH WIND       PRES   REMARKS
DENVER         MOSUNNY   25  19  78 CALM      29.87F HAZE
LARAMIE        PTSUNNY   28  24  85 CALM      29.79F
CHEYENNE       CLOUDY    25  20  81 S8        29.84F HAZE    WCI  16
SCOTTSBLUFF    MOSUNNY   39  23  52 S13       29.91F WCI  31
RAPID CITY     MOSUNNY   40  22  48 S21       29.84F WCI  30
PIERRE         SUNNY     39  15  37 S30G37    30.03F WCI  27
WINNER         CLOUDY    37  13  37 S31G40    30.07F WCI  24
SIOUX FALLS    CLOUDY    27  16  63 SE17G25   30.31F WCI  14
OMAHA          PTSUNNY   33  19  56 SE15      30.39F WCI  23
GRAND ISLAND   CLOUDY    38  18  44 S25G32    30.28F WCI  27
KANSAS CITY    CLOUDY    38  22  52 SE13      30.42F WCI  30
WICHITA        CLOUDY    33  19  56 SE10      30.36F WCI  25
HAYS           CLOUDY    34  16  47 S24       30.27F WCI  21
LIBERAL        CLOUDY    30  25  80 S18       30.22F WCI  18
GOODLAND       CLOUDY    28  21  75 S25       30.07F WCI  13
$$



USA.gov is the U.S. government's official web portal to all federal, state and local government web resources and services.